This is the latest recevied weather packets stored in our database for station/object OK1JIL-13. If no packets are shown the sender has not sent any weather packets the latest 10 day(s).
| Time | Temp. | Humidity | Pressure | Rain* | Wind** | Luminosity | Snow |
|---|---|---|---|---|---|---|---|
| 1777132378 | 15° C | 27% | 1013.5 hPa | - | - | - | - |
| 1777131778 | 15.56° C | 27% | 1013.6 hPa | - | - | - | - |
| 1777131178 | 15° C | 27% | 1013.6 hPa | - | - | - | - |
| 1777130578 | 15° C | 27% | 1013.7 hPa | - | - | - | - |
| 1777129979 | 15° C | 26% | 1013.6 hPa | - | - | - | - |
| 1777129378 | 15° C | 25% | 1013.5 hPa | - | - | - | - |
| 1777128778 | 15° C | 24% | 1013.8 hPa | - | - | - | - |
| 1777128178 | 16.11° C | 23% | 1013.6 hPa | - | - | - | - |
| 1777127578 | 16.11° C | 22% | 1013.6 hPa | - | - | - | - |
| 1777126978 | 16.11° C | 22% | 1013.6 hPa | - | - | - | - |
| 1777126378 | 16.67° C | 24% | 1013.7 hPa | - | - | - | - |
| 1777125778 | 16.67° C | 24% | 1013.7 hPa | - | - | - | - |
| 1777125178 | 16.11° C | 24% | 1013.6 hPa | - | - | - | - |
| 1777124578 | 15.56° C | 24% | 1013.7 hPa | - | - | - | - |
| 1777123978 | 16.11° C | 23% | 1013.8 hPa | - | - | - | - |
| 1777123378 | 16.11° C | 23% | 1014 hPa | - | - | - | - |
| 1777122778 | 15.56° C | 23% | 1014.1 hPa | - | - | - | - |
| 1777122179 | 15.56° C | 20% | 1014.1 hPa | - | - | - | - |
| 1777121578 | 16.11° C | 23% | 1014.2 hPa | - | - | - | - |
| 1777120978 | 16.67° C | 23% | 1014.3 hPa | - | - | - | - |
| 1777120378 | 16.67° C | 23% | 1014.4 hPa | - | - | - | - |
| 1777119778 | 16.67° C | 22% | 1014.4 hPa | - | - | - | - |
| 1777119178 | 16.67° C | 23% | 1014.4 hPa | - | - | - | - |
| 1777118578 | 16.67° C | 23% | 1014.3 hPa | - | - | - | - |
| 1777117978 | 17.22° C | 23% | 1014.5 hPa | - | - | - | - |
* Rain since midnight (hover to see other rain measurements)
** Current wind speed in m/s (hover to see current wind gust speed)